Wind_Speed
3 2 2 2 2 2 3 3 4 5 6 6 6 7 8 9 9 9 10 10 10 10 10 10 10 9 9 8 9 10 10 9 8 8 8 8 9 9 8 9 8 9 9
4 3 2 3 2 3 4 5 5 6 7 7 7 7 8 9 10 10 10 10 10 10 11 11 11 11 10 10 10 11 10 10 10 10 10 10 10 10 10 10 10 10 10
4 4 3 4 3 4 5 5 6 6 6 6 6 7 8 9 10 10 11 11 11 12 12 12 12 12 12 12 12 11 11 11 12 12 12 11 11 11 11 11 11 11 11
5 4 3 3 5 5 5 5 6 5 5 5 6 7 8 8 9 11 11 12 12 13 13 13 13 13 13 13 13 13 12 12 12 13 13 13 13 12 13 13 13 13 13
6 5 4 4 5 5 6 6 6 5 5 5 6 6 8 8 8 10 11 12 13 13 14 14 15 15 15 15 15 15 14 14 14 14 14 15 15 14 14 15 14 14 14
6 5 5 5 5 6 6 6 6 6 6 6 6 6 6 7 8 10 11 12 12 13 14 15 15 16 17 17 16 16 16 16 16 16 15 15 16 16 16 17 16 16 15
7 6 6 6 6 6 7 7 7 7 6 6 6 6 6 7 8 9 11 11 12 13 14 15 16 17 17 17 17 17 17 17 18 17 17 17 17 17 17 18 18 17 17
7 8 7 7 7 7 8 8 8 8 7 7 7 8 8 8 9 9 10 11 11 12 13 14 15 16 17 17 17 17 18 18 19 19 19 18 18 18 18 18 19 19 19
9 10 8 8 8 9 9 9 9 9 9 9 9 9 10 10 10 10 11 12 12 13 14 14 15 16 17 17 18 18 18 19 20 21 21 20 20 20 20 19 19 20 20
10 10 9 9 10 10 11 11 11 11 11 11 11 11 12 12 12 12 13 13 14 14 14 15 16 17 18 18 19 19 20 20 20 21 21 22 21 21 21 20 20 20 20
11 10 10 11 11 12 12 12 13 13 12 13 13 13 13 13 13 13 14 14 15 15 16 17 17 18 18 19 20 20 20 21 21 21 21 22 21 21 21 21 21 20 21
12 12 12 13 13 14 14 14 15 14 14 14 14 14 14 14 15 15 15 16 16 16 17 18 19 19 19 20 20 21 21 21 22 22 23 23 23 23 23 22 22 22 22
14 13 14 14 15 16 16 16 16 16 16 16 16 16 16 16 17 17 18 18 19 19 19 19 20 21 21 21 21 22 22 23 23 24 25 25 25 25 25 25 25 25 24
15 15 15 15 16 17 18 18 17 17 18 18 17 17 17 18 18 19 20 20 21 21 21 21 21 22 22 23 23 23 24 24 25 25 25 26 26 26 26 26 26 27 27
17 17 17 17 18 18 19 19 19 19 19 19 19 19 19 19 20 20 21 21 21 21 21 22 22 23 24 25 24 24 24 25 25 25 26 26 27 27 27 28 28 28 28
18 18 19 20 20 21 21 21 21 21 21 22 22 22 21 21 21 22 22 22 22 22 22 22 24 24 25 26 26 26 25 25 26 26 26 27 27 26 27 28 28 29 29
20 20 21 22 22 22 23 23 22 23 23 23 24 23 23 23 23 23 23 24 24 24 24 24 25 25 26 26 26 26 27 27 27 27 26 27 27 27 28 28 29 29 30
22 22 22 23 23 24 24 24 24 25 25 25 25 25 24 24 25 25 25 26 26 26 26 25 26 26 26 26 26 26 27 27 28 29 29 29 29 29 30 30 30 31 31
25 25 25 25 25 25 25 26 26 26 26 25 25 25 25 26 26 26 27 27 27 27 27 28 28 28 28 27 27 27 28 28 29 29 30 30 31 31 31 31 32 32 32
26 26 26 26 27 27 27 27 28 27 27 26 26 26 27 27 27 28 29 28 28 28 29 29 29 29 28 28 28 28 28 29 29 30 30 31 31 32 31 31 32 32 32
27 26 27 28 28 29 28 28 29 28 28 27 27 28 28 28 29 29 29 29 30 30 30 30 30 29 29 29 29 29 29 30 30 30 31 32 32 33 32 32 31 32 32
27 27 28 29 29 30 29 29 29 29 28 28 29 29 29 30 30 30 30 30 30 30 30 30 31 31 30 30 30 30 30 30 31 32 32 33 33 33 33 33 33 32 33
28 28 28 29 29 30 30 30 30 30 30 30 30 30 31 31 31 30 31 31 31 31 31 31 31 31 31 31 31 31 32 32 33 32 33 33 33 33 34 33 33 33 34
29 29 29 30 29 30 31 31 31 32 32 32 32 32 32 31 31 32 32 33 33 32 31 31 32 32 33 32 32 32 32 33 33 34 33 33 33 33 33 33 33 33 34
31 31 31 31 30 30 31 32 32 32 32 32 32 32 32 32 33 33 33 33 33 32 32 33 33 33 33 33 33 33 33 34 33 33 34 34 33 33 33 32 33 33 33
33 33 32 32 31 31 32 32 32 32 32 32 32 32 32 32 32 33 33 33 33 33 33 33 33 33 33 34 34 34 34 34 33 33 34 33 33 33 33 32 33 33 33
Wind_Direction
356 345 326 324 322 321 317 313 300 288 284 281 272 260 252 249 250 250 248 248 245 247 248 249 250 248 251 246 242 242 243 242 248 252 257 259 261 263 262 262 263 260 254
349 341 319 318 316 310 309 302 299 294 293 287 279 271 258 252 251 252 253 252 250 251 251 251 251 251 252 250 251 252 249 249 253 255 256 258 261 264 264 262 262 262 260
344 341 321 315 320 314 311 303 297 300 292 284 281 269 259 254 253 254 254 255 257 254 251 252 253 255 258 255 254 256 253 258 258 257 256 258 258 261 263 263 263 263 263
327 336 347 335 328 319 320 319 314 302 293 285 281 272 262 259 255 256 259 258 256 255 252 254 255 258 261 260 257 257 256 258 259 258 257 260 260 261 263 263 261 262 264
333 329 341 342 337 332 327 322 328 315 298 292 290 279 269 264 262 265 264 260 256 255 253 255 257 259 261 261 260 259 258 256 256 259 257 259 260 260 260 260 259 260 263
333 328 344 338 332 330 326 325 325 318 307 299 297 288 273 264 265 268 267 262 259 259 258 260 261 261 261 262 261 259 259 258 260 259 260 259 259 261 260 258 259 260 260
331 324 336 335 330 329 328 328 325 319 310 305 305 298 291 281 276 271 269 268 267 268 265 264 263 262 262 261 260 260 258 257 260 261 261 260 261 263 260 261 259 260 260
328 323 316 320 322 320 320 324 323 319 317 315 310 303 295 287 283 280 276 274 273 271 269 268 267 264 262 262 262 261 258 257 258 260 262 263 263 262 262 261 260 259 258
315 312 305 310 314 315 313 313 312 309 308 305 303 301 299 292 283 283 286 284 282 278 275 273 269 266 265 264 264 262 262 262 262 263 264 266 265 264 262 263 261 260 259
308 304 302 305 304 305 308 307 309 306 303 300 297 297 295 291 286 282 283 283 284 283 279 274 271 269 268 269 269 268 268 266 266 266 266 266 267 265 264 263 262 260 259
303 298 298 298 299 301 302 302 304 304 301 299 298 296 292 288 285 285 284 282 281 280 279 277 276 276 275 274 274 273 272 269 267 267 268 269 268 266 265 266 264 262 262
296 292 290 292 293 295 296 297 299 299 298 295 293 292 289 287 284 284 283 283 281 281 281 279 275 276 276 276 275 274 273 271 269 269 269 269 269 266 266 266 265 264 265
293 290 290 292 290 291 294 297 295 295 294 293 291 289 287 287 286 285 284 284 283 282 282 281 278 277 278 277 276 275 274 272 270 270 269 270 269 268 266 265 265 264 264
291 291 290 291 290 291 293 294 293 291 290 290 291 289 287 287 286 285 284 284 284 282 282 282 280 278 277 277 277 276 275 273 271 270 269 269 269 268 267 266 265 264 263
289 290 290 289 289 290 290 291 291 290 290 289 290 290 287 287 287 286 284 284 284 282 282 282 282 280 279 279 278 278 278 276 273 272 270 269 269 267 266 266 266 266 264
291 291 290 289 288 288 287 287 288 289 288 288 287 287 287 287 287 286 284 283 284 283 282 282 282 281 281 280 279 279 277 276 276 275 272 269 268 267 267 268 267 266 266
292 292 291 290 289 288 287 287 287 288 288 288 288 287 287 287 286 287 285 283 283 283 282 282 282 281 280 280 279 278 277 276 275 275 273 271 270 270 270 269 269 268 267
291 292 291 291 290 288 287 286 286 286 287 287 286 286 286 286 286 287 286 285 284 284 283 282 283 282 281 280 279 279 278 277 277 275 273 272 271 271 272 271 270 270 268
288 288 288 289 288 288 287 285 284 285 286 287 285 284 285 286 287 287 288 288 286 286 286 285 283 281 280 280 279 279 279 278 278 277 275 273 272 272 272 272 272 271 269
288 287 287 287 286 285 286 285 284 285 286 287 286 284 285 285 286 286 286 287 287 287 286 286 285 282 281 280 280 280 281 280 278 278 277 275 274 273 273 273 271 270 270
291 289 289 287 285 285 285 284 285 285 286 285 285 285 285 286 286 285 286 286 286 285 285 285 285 283 282 282 283 282 281 280 279 278 278 277 276 275 274 274 272 271 270
290 290 290 288 286 285 284 285 285 287 287 286 287 287 286 286 286 285 286 286 285 285 284 284 284 284 283 283 284 282 282 281 281 279 279 278 277 275 275 275 273 272 271
289 288 290 289 288 287 286 286 287 286 286 286 286 286 286 286 285 285 285 286 285 284 284 284 284 284 283 283 282 282 282 282 281 281 280 278 277 277 275 274 274 272 272
290 289 289 290 289 288 287 287 287 287 286 285 284 285 285 284 283 283 282 284 285 285 285 285 285 285 283 282 282 282 283 283 282 282 281 280 278 277 275 274 274 272 271
289 289 289 289 288 287 287 287 287 286 286 285 283 283 282 282 282 282 283 284 285 285 285 286 285 284 282 282 282 282 282 282 281 280 279 278 277 276 275 274 274 272 270
289 287 287 288 287 286 287 287 287 286 285 285 285 284 283 283 283 283 284 285 285 285 285 286 286 284 282 282 283 284 283 282 280 279 278 278 278 276 275 275 274 273 270
Height
5893 5892 5892 5891 5891 5890 5889 5889 5888 5887 5887 5886 5886 5886 5886 5886 5887 5887 5888 5888 5889 5889 5890 5890 5890 5890 5890 5890 5890 5891 5891 5891 5892 5892 5892 5893 5893 5893 5893 5893 5893 5893 5894
5893 5892 5891 5890 5890 5889 5888 5887 5887 5886 5885 5885 5884 5884 5884 5885 5885 5885 5885 5886 5886 5887 5887 5888 5888 5888 5888 5888 5889 5889 5889 5889 5890 5890 5890 5891 5891 5891 5891 5891 5891 5892 5892
5893 5891 5890 5890 5889 5888 5887 5886 5885 5884 5883 5883 5882 5882 5882 5882 5883 5883 5883 5884 5884 5885 5885 5885 5886 5886 5886 5886 5886 5886 5887 5887 5887 5887 5888 5888 5888 5889 5889 5889 5889 5889 5890
5892 5891 5890 5889 5888 5887 5886 5885 5884 5882 5882 5881 5881 5880 5880 5880 5880 5881 5881 5881 5882 5882 5882 5883 5883 5883 5883 5883 5883 5884 5884 5884 5885 5885 5885 5885 5885 5886 5886 5886 5887 5887 5887
5891 5890 5889 5888 5887 5886 5885 5884 5882 5881 5880 5879 5879 5878 5878 5878 5878 5878 5878 5879 5879 5879 5879 5879 5880 5880 5880 5880 5880 5880 5880 5881 5881 5882 5882 5882 5882 5883 5883 5883 5883 5884 5884
5890 5889 5889 5888 5886 5885 5884 5883 5881 5880 5879 5878 5877 5876 5876 5876 5876 5876 5876 5876 5876 5876 5876 5876 5876 5877 5877 5877 5877 5877 5877 5877 5877 5878 5878 5879 5879 5879 5879 5880 5880 5880 5880
5890 5889 5888 5886 5885 5884 5883 5882 5880 5879 5878 5877 5876 5875 5874 5874 5874 5873 5873 5873 5873 5873 5873 5873 5873 5873 5873 5873 5873 5873 5873 5873 5873 5874 5874 5875 5875 5875 5875 5875 5875 5876 5876
5889 5888 5887 5886 5884 5883 5882 5881 5879 5878 5877 5876 5875 5874 5873 5873 5872 5871 5871 5871 5870 5869 5869 5869 5869 5869 5869 5869 5869 5869 5869 5869 5870 5870 5870 5870 5871 5871 5871 5871 5871 5871 5872
5888 5887 5886 5884 5883 5882 5880 5879 5878 5877 5875 5874 5873 5872 5872 5871 5870 5869 5868 5868 5867 5867 5866 5865 5865 5865 5865 5865 5865 5865 5865 5865 5865 5866 5866 5866 5866 5866 5866 5866 5867 5867 5867
5886 5885 5884 5882 5881 5880 5878 5877 5875 5874 5873 5872 5871 5870 5869 5868 5868 5867 5866 5865 5864 5863 5863 5862 5861 5861 5861 5860 5860 5861 5860 5860 5860 5860 5861 5861 5861 5861 5861 5861 5861 5862 5862
5884 5883 5881 5880 5879 5877 5876 5875 5873 5872 5871 5869 5868 5867 5866 5864 5864 5863 5862 5862 5861 5860 5859 5858 5857 5857 5856 5856 5856 5856 5855 5855 5855 5855 5855 5855 5855 5855 5855 5856 5856 5856 5857
5882 5880 5879 5877 5876 5874 5873 5872 5870 5869 5868 5866 5865 5864 5862 5861 5860 5859 5858 5857 5857 5856 5855 5854 5853 5852 5852 5851 5851 5850 5850 5850 5850 5849 5849 5849 5849 5850 5850 5850 5850 5851 5851
5879 5877 5876 5874 5872 5871 5870 5868 5867 5866 5864 5863 5861 5860 5858 5857 5856 5855 5854 5853 5852 5851 5850 5849 5848 5847 5847 5846 5845 5845 5844 5844 5843 5843 5843 5843 5843 5843 5844 5844 5844 5844 5845
5875 5873 5872 5870 5869 5867 5866 5864 5863 5861 5860 5858 5857 5855 5854 5853 5851 5850 5849 5848 5847 5846 5845 5844 5843 5842 5841 5840 5840 5839 5838 5837 5837 5837 5837 5836 5836 5837 5837 5837 5837 5838 5838
5871 5870 5868 5866 5865 5863 5861 5859 5858 5856 5855 5853 5852 5851 5849 5848 5846 5845 5843 5842 5842 5840 5840 5838 5837 5836 5835 5834 5833 5832 5831 5830 5830 5830 5830 5829 5829 5829 5830 5830 5830 5830 5831
5867 5865 5863 5861 5860 5858 5856 5854 5853 5851 5849 5848 5846 5845 5844 5842 5840 5839 5838 5836 5835 5834 5833 5832 5831 5830 5828 5827 5826 5825 5824 5823 5823 5822 5822 5822 5822 5822 5822 5822 5822 5822 5823
5862 5860 5858 5856 5854 5852 5850 5848 5847 5845 5843 5842 5840 5839 5838 5836 5834 5833 5831 5830 5829 5827 5826 5825 5824 5823 5821 5820 5819 5818 5817 5816 5816 5815 5815 5814 5814 5814 5814 5814 5814 5814 5814
5856 5854 5852 5850 5848 5846 5844 5842 5840 5838 5837 5835 5834 5832 5831 5829 5828 5826 5825 5823 5822 5820 5819 5818 5817 5815 5814 5813 5811 5810 5809 5808 5808 5807 5807 5806 5806 5806 5805 5805 5805 5805 5805
5849 5847 5845 5843 5841 5839 5837 5835 5833 5831 5829 5828 5827 5825 5824 5822 5821 5819 5818 5816 5815 5813 5811 5810 5809 5807 5806 5805 5804 5803 5801 5801 5800 5799 5798 5798 5797 5797 5797 5796 5796 5796 5796
5842 5840 5838 5836 5834 5832 5830 5828 5825 5823 5822 5820 5819 5818 5816 5815 5813 5812 5810 5809 5807 5805 5804 5802 5800 5799 5797 5796 5795 5794 5793 5792 5791 5791 5790 5789 5788 5788 5788 5787 5787 5787 5787
5835 5833 5830 5828 5826 5824 5822 5820 5818 5816 5814 5813 5811 5810 5808 5807 5805 5804 5802 5801 5799 5797 5795 5794 5792 5791 5789 5788 5787 5785 5784 5783 5782 5781 5781 5780 5779 5778 5778 5778 5777 5777 5777
5829 5826 5823 5820 5818 5817 5815 5812 5810 5808 5806 5805 5803 5802 5800 5799 5797 5795 5794 5792 5790 5788 5787 5785 5783 5782 5781 5779 5778 5776 5775 5774 5773 5773 5771 5770 5769 5768 5768 5768 5767 5767 5767
5821 5819 5816 5813 5811 5809 5807 5805 5802 5800 5798 5796 5794 5793 5791 5790 5788 5786 5785 5783 5782 5780 5778 5776 5775 5773 5771 5770 5769 5767 5765 5764 5763 5762 5761 5760 5759 5758 5758 5757 5757 5757 5756
5814 5811 5809 5806 5803 5801 5798 5796 5794 5792 5790 5788 5786 5784 5782 5780 5779 5777 5775 5774 5772 5770 5769 5767 5765 5763 5762 5760 5759 5757 5755 5754 5753 5751 5750 5749 5749 5748 5747 5747 5746 5746 5746
5805 5803 5800 5798 5795 5792 5790 5787 5785 5783 5781 5779 5777 5775 5773 5772 5770 5768 5766 5764 5763 5761 5759 5757 5756 5754 5752 5750 5748 5747 5745 5743 5742 5741 5740 5739 5738 5738 5737 5736 5736 5735 5735
5797 5794 5792 5789 5786 5784 5782 5779 5776 5774 5772 5770 5768 5766 5764 5762 5760 5758 5756 5755 5753 5751 5749 5747 5745 5744 5742 5740 5738 5736 5734 5733 5732 5731 5729 5728 5728 5727 5727 5726 5726 5725 5725